Friday Harbor, WA

12:32 AM PDT on April 26, 2017 (GMT -0700)
Friday Harbor

Weather History for KFHR - August, 2014

Change the Weather History Date:

Friday, August 29, 2014

  Actual Average Record
Temperature  
Mean Temperature 60 °F -  
Max Temperature 66 °F 68 °F 80 °F (2007)
Min Temperature 54 °F 47 °F 44 °F (2005)
Degree Days  
Heating Degree Days 5    
Growing Degree Days 10 (Base 50)    
Moisture  
Dew Point 52 °F    
Average Humidity 79    
Maximum Humidity 93    
Minimum Humidity 60    
Precipitation  
Precipitation 0.00 in - - ()
Sea Level Pressure  
Sea Level Pressure 29.97 in    
Wind  
Wind Speed 4 mph (South)    
Max Wind Speed 9 mph    
Max Gust Speed -    
Visibility 10 miles    
Events Rain    
Averages and records for this station are not official NWS values.
T = Trace of Precipitation, MM = Missing Value Source: NWS Daily Summary

Daily Weather History Graph

Daily Weather History Graph

Search for Another Location

Airport or City:

Trip Planner

Search our weather history database for the weather conditions in past years. The results will help you decide how hot, cold, wet, or windy it might be!

Date:

Astronomy

Aug. 29, 2014 Rise Set
Actual Time 6:25 AM PDT 7:59 PM PDT
Civil Twilight 5:52 AM PDT 8:32 PM PDT
Nautical Twilight 5:12 AM PDT 9:12 PM PDT
Astronomical Twilight 4:28 AM PDT 9:55 PM PDT
Moon 10:42 AM PDT (8/29) 9:36 PM PDT (8/29)
Length of Visible Light 14h 39m
Length of Day
13h 34m
Waxing Crescent, 16% of the Moon is Illuminated
Aug 29
Waxing Crescent
Sep 2
First Quarter
Sep 8
Full
Sep 15
Last Quarter
Sep 23
New

Hourly Weather History & Observations

Time (PDT) Temp. Dew Point Humidity Pressure Visibility Wind Dir Wind Speed Gust Speed Precip Events Conditions
12:53 AM 57.9 °F 50.0 °F 75% 29.99 in 10.0 mi Calm Calm - N/A   Overcast
1:53 AM 57.9 °F 50.0 °F 75% 29.98 in 10.0 mi Variable 4.6 mph - N/A   Overcast
2:53 AM 57.0 °F 50.0 °F 77% 29.97 in 10.0 mi Variable 4.6 mph - N/A   Overcast
3:53 AM 55.0 °F 50.0 °F 83% 29.97 in 10.0 mi Variable 4.6 mph - N/A   Overcast
4:53 AM 55.9 °F 50.0 °F 80% 29.97 in 10.0 mi Variable 4.6 mph - N/A   Overcast
5:53 AM 55.9 °F 50.0 °F 80% 29.96 in 10.0 mi Variable 3.5 mph - N/A   Overcast
6:53 AM 54.0 °F 51.1 °F 90% 29.96 in 10.0 mi SSE 5.8 mph - N/A   Partly Cloudy
8:53 AM 55.9 °F 50.0 °F 80% 29.98 in 10.0 mi SW 8.1 mph - N/A   Overcast
9:53 AM 55.9 °F 53.1 °F 90% 29.98 in 8.0 mi South 5.8 mph - 0.00 in Rain Light Rain
10:53 AM 57.9 °F 50.0 °F 75% 29.98 in 10.0 mi SW 6.9 mph - 0.00 in   Overcast
11:53 AM 61.0 °F 50.0 °F 67% 29.99 in 10.0 mi SSE 8.1 mph - N/A   Mostly Cloudy
1:53 PM 63.0 °F 48.9 °F 60% 29.99 in 10.0 mi ESE 6.9 mph - N/A   Scattered Clouds
2:53 PM 66.0 °F 53.1 °F 63% 29.99 in 10.0 mi SE 9.2 mph - N/A   Overcast
3:53 PM 64.0 °F 54.0 °F 70% 29.99 in 10.0 mi SSE 6.9 mph - N/A   Overcast
4:53 PM 62.1 °F 54.0 °F 75% 29.97 in 10.0 mi East 5.8 mph - N/A   Mostly Cloudy
5:53 PM 64.0 °F 55.0 °F 73% 29.97 in 10.0 mi ESE 4.6 mph - N/A   Mostly Cloudy
6:53 PM 63.0 °F 53.1 °F 70% 29.96 in 10.0 mi Variable 4.6 mph - N/A   Partly Cloudy
8:53 PM 55.9 °F 53.1 °F 90% 29.96 in 10.0 mi WSW 4.6 mph - N/A   Clear
9:53 PM 54.0 °F 52.0 °F 93% 29.96 in 10.0 mi SW 3.5 mph - N/A   Clear
10:53 PM 55.0 °F 53.1 °F 93% 29.95 in 10.0 mi SW 5.8 mph - N/A   Clear
11:53 PM 54.0 °F 52.0 °F 93% 29.95 in 10.0 mi SW 4.6 mph - N/A   Partly Cloudy